Showing default

PACE, 58928

Orbit data source: Space-Track

PACE, 58928 is a payload satellite owned by GSFC (US) in SSO that was launched on Thu, 08 Feb 2024 UTC via an FALCON 9 launch vehicle from the Air Force Eastern Test Range (AFETR). Payload-class satellites include a variety of spacecraft equipped with specific instruments for various scientific and technological missions. These include communications satellites like Starlink; space stations such as the ISS; scientific satellites like the Hubble; Earth observation satellites from companies like Planet Labs, Umbra, and HawkEye 360; GPS; miniature CubeSats for education and research; and military/defense satellites.

Loading next visibility...
Identifier
58928, 2024-025A
Orbit
SSO
Country
Flag of USUS
Related business
Manufacturer
GSFC
Mission
Operational Civil Earth Obs Sci
Bus & Motor
PACE, Unknown motor
Mass
1,700 kg wet, 1,700 kg dry
Launch date (UTC)
2024-02-08 (2 years ago)
Launch vehicle
FALCON 9
Launch site
Air Force Eastern Test Range (AFETR)
Object type
Payload
Rocket body
Debris
Shape & HBR
Box + 1 Pan, 1.5 m
Radar Cross Section
3.984 m², Large (>1 m²)

Expand to show TLE details & history
Last TLE update: 2 days ago

TLE from 2 days ago
0 PACE
1 58928U 24025A   26171.40467984  .00000280  00000-0  60333-4 0  9993
2 58928  98.0952 102.6740 0000780 210.2507 149.8652 14.65546633126400
Epoch: 2026-06-20T09:42Z
TLE epoch observation values (Epoch: 2026-06-20T09:42:44.338Z)
Latitude
0.00004°
Longitude
48.36947°
Altitude
678.793 km
Speed
7.517 km/s
True Right ascension
06h 50m 41s
True Declination
0° 00' 00"
Sunlit
Object was in daylight at epoch
Visualization orbit readout
Latitude
Unknown
Longitude
Unknown
Altitude
Unknown
Speed
Unknown
Apparent Right ascension
Unknown
Apparent Declination
Unknown
Sunlit
N/A
Visualization observer readout
Local Sidereal Time
21:30:29
Azimuth
Unknown
Elevation
Unknown
Doppler factor
Unknown
Orbital elements
Apogee altitude
672.94 km
Perigee altitude
671.84 km
Semi-major axis
7,050.527 km
Eccentricity
0.00008
Inclination
98.0952°
RAAN
102.674°
Arg. of periapsis
210.2507°
True anomaly
149.86969°
Mean anomaly
149.8652°
Eccentric anomaly
149.86744°
Mean motion
3.66615 °/min
Orbital period
98.2 mins
BSTAR
0.000060333
Loading maneuver chart data...
Computing Atmospheric mass density...
Loading historical data...
Loading historical data...
Loading historical data...
Loading historical data...
Loading historical data...
Loading historical data...
Loading historical data...
Other satellites on launch #25 in the year 2024 (2024-02-08 UTC)

Documentation

Showing up to 5 results
|